Location: ?????????
(55.6553°N, 38.9075°E)
Time: 01:02:27
(UTC+00:00)

COSMOS 2455 - Pass Details

Date: 18 October 2019
Orbit: 901 x 909 km, 67.1° (Epoch: 19 November)

Event Time Altitude Azimuth Distance (km) Brightness Sun altitude
Exits shadow 00:53:01 44° 176° (S) 1,241 3.3 -26.6°
Maximum altitude 00:54:39 59° 124° (ESE) 1,050 3.2 -26.4°
Drops below altitude 10° 01:00:34 10° 46° (NE) 2,605 6.1 -25.6°
Sets 01:03:07 0° 43° (NE) 3,550 7.0 -25.3°
